一网星座-0292星 (ONEWEB-0292 )

导读

ONEWEB-0292是英国OneWeb卫星星座的成员,于2021年9月14日发射,属于低轨小型通信卫星。OneWeb计划打造由600余颗低轨卫星组成的全球高速互联网星座,旨在为全球各个角落,尤其是地面基础设施覆盖不足区域提供低延迟、高速的网络连接服务,该卫星入轨后将协助推进OneWeb星座组网,助力实现全球卫星互联网服务部署。

Basic Information
目录编号:
49186
目录名称:
ONEWEB-0292
国际标识:
2021-083A
轨道中心:
EARTH
卫星名称:
一网星座-0292星
卫星全名:
一网星座-0292星 (ONEWEB-0292 )
卫星状态:
在轨 (已飞行1823 天)
发射日期:
2021-09-14 UTC
国别 :
英国 (GB)
星等 :
--
This satellite is enrolled in the Space Conjunction Data Service (SCDS) and the current flight risk assessment level is: No High Risk
Orbit Information
数据来源 国际轨道数据 AOE轨道数据
星历时间 2026-09-11T10:15:12+0800
13小时前
查看轨道信息
2026-09-10T00:00:00+0800
1天前
查看轨道信息
半长轴 7587.905km 7587.899km
偏心率 0.0002019 0.0001961
轨道倾角 87.893° 87.893°
近地点辐角 100.190° 97.357°
升交点赤经 303.146° 303.431°
平近点角 259.945° 358.013°
近地点 1208.236km 1208.274km
远地点 1211.3km 1211.25km
周期 109.633分钟 109.633分钟
每日圈数 13.134695 13.13471
Detailed Information
平衡模式:
三轴稳定
覆盖范围:
全球
运营商:
一网卫星公司
运营商所在国:
英国
制造商(研发单位):
一网卫星公司
制造商所在国:
英国
使用方式:
暂无
Satellite Introduction
OneWeb卫星网络由648颗重约125公斤的微型卫星组成,运行在1200公里的轨道上。 每颗卫星都能够提供至少每秒8千兆位的吞吐量,以使用其高吞吐量的Ku频段有效载荷为家庭和移动平台提供互联网接入。该卫星仍在工作。
2D Orbit Map
3D Orbit Map
Orbit Altitude Analysis Chart
Orbit Inclination Analysis Chart
Orbit Comprehensive Analysis Chart
View Comprehensive Chart
Conjunction Data List
Event ID Objects TCA Miss Dist (km) Collision Risk Probability Collision Risk Index (CRI) Action
CDM_260912-175602-138404-918623
2026-09-12T
17:56:33+0000
1.955 km
极远距离
2.919964E-6 低风险 0.44
Miss Distance Evolution Trend with All Objects
Collision Probability Evolution Trend with All Objects